This demonstration page uses our WeatherBlox Daily Observations layout. Learn more.

Left ArrowRight Arrow

Hourly Observations for May 6, 2015

Temp ( °F °C ) Dew Point ( °F °C ) Humidity (%) Winds ( mph kmh ) Pressure ( in mb ) Visibility ( mi km ) Precip ( " mm )
12:51 am 00:51 Clear 57 13.9 44 6.7 62 62 SSE 5 7 29.80 1009 10 16 0.00 0.00
1:51 am 01:51 Clear 55 12.8 43 6.1 64 64 Calm 29.80 1009 10 16 0.00 0.00
2:51 am 02:51 Clear 56 13.3 44 6.7 65 65 SSE 6 9 29.80 1009 10 16 0.00 0.00
3:51 am 03:51 Clear 55 12.8 45 7.2 69 69 NE 5 7 29.79 1009 10 16 0.00 0.00
4:51 am 04:51 Mostly Clear 54 12.2 44 6.7 69 69 NE 3 6 29.79 1009 10 16 0.00 0.00
5:51 am 05:51 Sunny 55 12.8 44 6.7 67 67 SE 5 7 29.80 1009 10 16 0.00 0.00
6:51 am 06:51 Sunny 58 14.4 44 6.7 60 60 SSW 3 6 29.80 1009 10 16 0.00 0.00
7:51 am 07:51 Sunny 64 17.8 46 7.8 52 52 Calm 29.80 1009 10 16 0.00 0.00
8:51 am 08:51 Sunny 68 20 44 6.7 42 42 SE 6 9 29.79 1009 10 16 0.00 0.00
9:51 am 09:51 Sunny 72 22.2 44 6.7 37 37 E 6 9 29.77 1008 10 16 0.00 0.00
10:51 am 10:51 Sunny 78 25.6 43 6.1 29 29 E 10 17 29.73 1007 10 16 0.00 0.00
11:51 am 11:51 Sunny 79 26.1 39 3.9 24 24 ESE 8 13 29.71 1006 10 16 0.00 0.00
12:51 pm 12:51 Sunny 82 27.8 32 0 16 16 N 3 6 29.67 1005 10 16 0.00 0.00
1:51 pm 13:51 Sunny 84 28.9 30 -1.1 14 14 WNW 8 13 29.65 1004 10 16 0.00 0.00
2:51 pm 14:51 Sunny 83 28.3 27 -2.8 13 13 SW 6 9 29.62 1003 10 16 0.00 0.00
3:51 pm 15:51 Mostly Sunny 86 30 26 -3.3 11 11 NW 16 26 29.60 1002 10 16 0.00 0.00
4:51 pm 16:51 Sunny 83 28.3 17 -8.3 8 8 W 6 9 29.60 1002 10 16 0.00 0.00
5:51 pm 17:51 Sunny 83 28.3 14 -10 7 7 WNW 17 28 29.60 1002 10 16 0.00 0.00
6:51 pm 18:51 Sunny 79 26.1 17 -8.3 10 10 WNW 17 28 29.61 1003 10 16 0.00 0.00
7:51 pm 19:51 Clear 73 22.8 22 -5.6 15 15 WNW 9 15 29.62 1003 10 16 0.00 0.00
8:51 pm 20:51 Clear 68 20 24 -4.4 19 19 NW 7 11 29.65 1004 10 16 0.00 0.00
9:51 pm 21:51 Clear 65 18.3 25 -3.9 22 22 NNW 7 11 29.67 1005 10 16 0.00 0.00
10:51 pm 22:51 Clear 66 18.9 30 -1.1 26 26 NW 10 17 29.68 1005 10 16 0.00 0.00
11:51 pm 23:51 Clear 67 19.4 36 2.2 32 32 NW 12 19 29.69 1005 10 16 0.00 0.00

Powered by AerisWeather